| time (UTC) | temp F | wind direction | speed knots | gust knots | rain 1hr in | rain 24hr in | rain mn in | humidity % | barometer mb |
| 20260506013336 | 23 | 0 | 0.0 | 0.0 | 0.00 | 0.01 | 0.00 | 88 | 1011.5 |
| 20260506012436 | 23 | 0 | 0.0 | 0.0 | 0.00 | 0.01 | 0.00 | 87 | 1011.6 |
| 20260506011536 | 23 | 89 | 0.0 | 0.9 | 0.00 | 0.01 | 0.00 | 87 | 1011.4 |
| 20260506010635 | 24 | 87 | 0.0 | 0.9 | 0.00 | 0.01 | 0.00 | 86 | 1011.2 |
| 20260506005736 | 24 | 0 | 0.0 | 0.0 | 0.00 | 0.01 | 0.00 | 85 | 1011.2 |
| 20260506004835 | 25 | 88 | 0.0 | 0.9 | 0.00 | 0.01 | 0.00 | 84 | 1011.1 |
| 20260506004149 | 25 | 87 | 0.9 | 0.9 | 0.00 | 0.01 | 0.00 | 86 | 1011.2 |
| 20260506003036 | 25 | 92 | 0.0 | 0.9 | 0.00 | 0.01 | 0.00 | 84 | 1011.2 |
| 20260506002136 | 26 | 104 | 0.0 | 0.9 | 0.00 | 0.01 | 0.00 | 84 | 1011.0 |
| 20260506001446 | 25 | 0 | 0.0 | 0.0 | 0.00 | 0.01 | 0.00 | 85 | 1010.8 |
| 20260506000336 | 26 | 123 | 0.0 | 1.7 | 0.00 | 0.01 | 0.00 | 83 | 1010.9 |
| 20260505235436 | 27 | 97 | 1.7 | 2.6 | 0.00 | 0.01 | 0.00 | 81 | 1010.7 |
| 20260505234748 | 27 | 95 | 1.7 | 2.6 | 0.00 | 0.01 | 0.00 | 83 | 1010.7 |
| 20260505233636 | 27 | 91 | 0.9 | 2.6 | 0.00 | 0.01 | 0.00 | 84 | 1010.8 |
| 20260505232736 | 27 | 83 | 1.7 | 2.6 | 0.00 | 0.01 | 0.00 | 84 | 1010.7 |
| 20260505231836 | 27 | 82 | 0.9 | 2.6 | 0.00 | 0.01 | 0.00 | 85 | 1010.8 |
| 20260505230936 | 26 | 85 | 0.9 | 1.7 | 0.00 | 0.01 | 0.00 | 84 | 1010.6 |
| 20260505230036 | 27 | 99 | 0.9 | 1.7 | 0.00 | 0.01 | 0.00 | 82 | 1010.5 |
| 20260505225136 | 27 | 94 | 0.9 | 2.6 | 0.00 | 0.01 | 0.00 | 83 | 1010.4 |
| 20260505224236 | 28 | 86 | 0.9 | 2.6 | 0.00 | 0.01 | 0.00 | 83 | 1010.4 |
| 20260505223335 | 27 | 0 | 0.0 | 0.0 | 0.00 | 0.01 | 0.00 | 83 | 1010.4 |
| 20260505222436 | 28 | 94 | 0.0 | 0.9 | 0.00 | 0.01 | 0.00 | 83 | 1010.3 |
| 20260505221535 | 28 | 0 | 0.0 | 0.0 | 0.00 | 0.01 | 0.00 | 82 | 1010.4 |
| 20260505220636 | 28 | 0 | 0.0 | 0.0 | 0.00 | 0.01 | 0.00 | 83 | 1010.2 |
| 20260505215736 | 28 | 93 | 0.0 | 0.9 | 0.00 | 0.01 | 0.01 | 83 | 1010.3 |
| 20260505214835 | 28 | 93 | 0.0 | 0.9 | 0.00 | 0.01 | 0.01 | 81 | 1010.3 |
| 20260505213936 | 29 | 99 | 0.0 | 0.9 | 0.00 | 0.01 | 0.01 | 79 | 1010.3 |
| 20260505213248 | 30 | 106 | 0.9 | 2.6 | 0.00 | 0.02 | 0.01 | 79 | 1010.1 |
| 20260505212136 | 30 | 94 | 0.9 | 2.6 | 0.00 | 0.02 | 0.01 | 77 | 1010.1 |
| 20260505211236 | 30 | 86 | 0.9 | 2.6 | 0.00 | 0.02 | 0.01 | 79 | 1010.0 |
| 20260505210336 | 30 | 72 | 0.0 | 1.7 | 0.00 | 0.02 | 0.01 | 77 | 1010.0 |
| 20260505205435 | 31 | 82 | 0.9 | 1.7 | 0.00 | 0.03 | 0.01 | 76 | 1009.9 |
| 20260505204536 | 31 | 88 | 0.9 | 2.6 | 0.00 | 0.04 | 0.01 | 75 | 1009.8 |
| 20260505203847 | 31 | 87 | 0.9 | 1.7 | 0.00 | 0.04 | 0.01 | 76 | 1009.8 |
| 20260505202950 | 31 | 70 | 0.9 | 1.7 | 0.00 | 0.05 | 0.01 | 76 | 1009.8 |
| 20260505201836 | 32 | 66 | 0.0 | 1.7 | 0.00 | 0.06 | 0.01 | 76 | 1009.6 |
| 20260505200936 | 32 | 0 | 0.0 | 0.0 | 0.00 | 0.07 | 0.01 | 76 | 1009.5 |
| 20260505200036 | 32 | 64 | 0.0 | 0.9 | 0.00 | 0.09 | 0.01 | 74 | 1009.5 |
| 20260505195135 | 33 | 62 | 0.0 | 1.7 | 0.00 | 0.10 | 0.01 | 72 | 1009.3 |
| 20260505194236 | 34 | 0 | 0.0 | 0.0 | 0.00 | 0.10 | 0.01 | 73 | 1009.3 |
| 20260505193336 | 35 | 83 | 0.0 | 1.7 | 0.00 | 0.10 | 0.01 | 71 | 1009.1 |
| 20260505192435 | 35 | 72 | 0.0 | 0.9 | 0.00 | 0.10 | 0.01 | 69 | 1009.1 |
| 20260505191536 | 36 | 71 | 0.0 | 1.7 | 0.00 | 0.10 | 0.01 | 66 | 1008.8 |
| 20260505190846 | 37 | 82 | 0.0 | 1.7 | 0.00 | 0.10 | 0.01 | 66 | 1008.9 |
| 20260505185736 | 37 | 98 | 0.0 | 3.5 | 0.00 | 0.10 | 0.01 | 66 | 1008.8 |
| 20260505184835 | 38 | 72 | 0.9 | 2.6 | 0.00 | 0.10 | 0.01 | 66 | 1008.8 |
| 20260505183936 | 38 | 63 | 0.9 | 2.6 | 0.00 | 0.10 | 0.01 | 66 | 1008.7 |
| 20260505183036 | 38 | 69 | 0.9 | 2.6 | 0.00 | 0.10 | 0.01 | 66 | 1008.7 |
| 20260505182136 | 39 | 73 | 0.9 | 3.5 | 0.00 | 0.10 | 0.01 | 64 | 1008.5 |
| 20260505181445 | 39 | 66 | 1.7 | 3.5 | 0.00 | 0.10 | 0.01 | 63 | 1008.5 |
| 20260505180336 | 39 | 58 | 0.9 | 5.2 | 0.00 | 0.10 | 0.01 | 62 | 1008.4 |
| 20260505175435 | 39 | 69 | 1.7 | 4.3 | 0.00 | 0.10 | 0.01 | 62 | 1008.4 |
| 20260505174536 | 39 | 95 | 1.7 | 5.2 | 0.00 | 0.10 | 0.01 | 61 | 1008.5 |
| 20260505173635 | 40 | 99 | 0.9 | 1.7 | 0.00 | 0.10 | 0.01 | 60 | 1008.5 |
| 20260505172736 | 40 | 114 | 0.9 | 3.5 | 0.00 | 0.10 | 0.01 | 60 | 1008.4 |
| 20260505171836 | 40 | 127 | 1.7 | 5.2 | 0.00 | 0.10 | 0.01 | 61 | 1008.3 |
| 20260505171146 | 40 | 115 | 2.6 | 8.7 | 0.00 | 0.10 | 0.01 | 60 | 1008.4 |
| 20260505170036 | 41 | 123 | 4.3 | 9.6 | 0.00 | 0.10 | 0.01 | 57 | 1008.5 |
| 20260505165346 | 42 | 122 | 4.3 | 13.0 | 0.00 | 0.10 | 0.01 | 54 | 1008.5 |
| 20260505164236 | 44 | 113 | 3.5 | 12.2 | 0.00 | 0.10 | 0.01 | 53 | 1008.4 |
| 20260505163335 | 45 | 112 | 2.6 | 10.4 | 0.00 | 0.10 | 0.01 | 50 | 1008.2 |
| 20260505162435 | 44 | 105 | 2.6 | 7.0 | 0.00 | 0.10 | 0.01 | 46 | 1008.0 |
| 20260505161536 | 46 | 91 | 3.5 | 7.8 | 0.00 | 0.10 | 0.01 | 43 | 1007.8 |
| 20260505160636 | 46 | 89 | 1.7 | 6.1 | 0.00 | 0.10 | 0.01 | 41 | 1007.6 |
| 20260505153035 | 45 | 113 | 2.6 | 7.8 | 0.00 | 0.10 | 0.01 | 43 | 1007.7 |
| 20260505152136 | 44 | 115 | 3.5 | 12.2 | 0.00 | 0.10 | 0.01 | 44 | 1007.7 |
| 20260505151236 | 44 | 118 | 3.5 | 9.6 | 0.00 | 0.10 | 0.01 | 45 | 1007.9 |
| 20260505150335 | 45 | 125 | 3.5 | 9.6 | 0.00 | 0.10 | 0.01 | 41 | 1007.7 |
| 20260505140245 | 45 | 217 | 3.5 | 7.8 | 0.00 | 0.10 | 0.01 | 47 | 1007.0 |
| 20260505124836 | 46 | 73 | 2.6 | 7.8 | 0.01 | 0.10 | 0.01 | 41 | 1007.2 |
| 20260505123935 | 45 | 89 | 2.6 | 6.1 | 0.01 | 0.10 | 0.01 | 40 | 1007.3 |
| 20260505123035 | 44 | 92 | 2.6 | 11.3 | 0.01 | 0.10 | 0.01 | 46 | 1007.2 |
| 20260505122136 | 44 | 79 | 6.1 | 16.5 | 0.01 | 0.10 | 0.01 | 45 | 1007.3 |
| 20260505121235 | 44 | 98 | 2.6 | 14.8 | 0.01 | 0.10 | 0.01 | 48 | 1007.1 |
| 20260505120335 | 43 | 110 | 2.6 | 7.0 | 0.00 | 0.09 | 0.00 | 54 | 1007.1 |
| 20260505115648 | 44 | 141 | 2.6 | 8.7 | 0.00 | 0.09 | 0.00 | 54 | 1007.3 |
| 20260505114535 | 45 | 108 | 1.7 | 6.1 | 0.00 | 0.09 | 0.00 | 47 | 1006.8 |
| 20260505113636 | 45 | 109 | 4.3 | 10.4 | 0.00 | 0.09 | 0.00 | 48 | 1007.1 |
| 20260505112736 | 48 | 126 | 4.3 | 8.7 | 0.00 | 0.09 | 0.00 | 38 | 1006.7 |
| 20260505111836 | 49 | 118 | 2.6 | 6.1 | 0.00 | 0.09 | 0.00 | 40 | 1006.6 |
| 20260505110936 | 47 | 97 | 5.2 | 15.6 | 0.00 | 0.09 | 0.00 | 33 | 1006.7 |
| 20260505101536 | 46 | 94 | 2.6 | 14.8 | 0.00 | 0.09 | 0.00 | 45 | 1006.5 |
| 20260505100636 | 46 | 87 | 3.5 | 10.4 | 0.00 | 0.09 | 0.00 | 45 | 1006.5 |
| 20260505095736 | 46 | 90 | 3.5 | 12.2 | 0.00 | 0.09 | 0.00 | 45 | 1006.6 |
| 20260505094835 | 46 | 86 | 4.3 | 12.2 | 0.00 | 0.09 | 0.00 | 48 | 1006.6 |
| 20260505093936 | 45 | 84 | 3.5 | 8.7 | 0.00 | 0.09 | 0.00 | 49 | 1006.5 |
| 20260505093036 | 45 | 87 | 4.3 | 14.8 | 0.00 | 0.09 | 0.00 | 51 | 1006.6 |
| 20260505092348 | 44 | 88 | 2.6 | 12.2 | 0.00 | 0.09 | 0.00 | 51 | 1006.7 |
| 20260505091445 | 44 | 97 | 2.6 | 7.8 | 0.00 | 0.09 | 0.00 | 50 | 1006.6 |
| 20260505090335 | 44 | 105 | 2.6 | 7.8 | 0.00 | 0.09 | 0.00 | 49 | 1006.7 |
| 20260505085436 | 44 | 108 | 2.6 | 9.6 | 0.00 | 0.09 | 0.00 | 48 | 1006.5 |
| 20260505084535 | 43 | 105 | 2.6 | 7.0 | 0.00 | 0.09 | 0.00 | 48 | 1006.5 |
| 20260505083636 | 44 | 94 | 1.7 | 7.0 | 0.00 | 0.09 | 0.00 | 49 | 1006.4 |
| 20260505082736 | 44 | 103 | 1.7 | 7.8 | 0.00 | 0.09 | 0.00 | 50 | 1006.2 |
| 20260505081836 | 44 | 133 | 1.7 | 6.1 | 0.00 | 0.09 | 0.00 | 49 | 1006.0 |
| 20260505080935 | 44 | 130 | 2.6 | 8.7 | 0.00 | 0.09 | 0.00 | 46 | 1005.9 |
| 20260505080036 | 45 | 109 | 3.5 | 9.6 | 0.00 | 0.09 | 0.00 | 46 | 1005.9 |
| 20260505075136 | 44 | 105 | 3.5 | 9.6 | 0.00 | 0.09 | 0.00 | 46 | 1005.9 |
| 20260505074236 | 44 | 109 | 2.6 | 9.6 | 0.00 | 0.09 | 0.00 | 50 | 1005.9 |
| 20260505073335 | 43 | 114 | 3.5 | 9.6 | 0.00 | 0.09 | 0.00 | 53 | 1005.8 |
| 20260505072436 | 43 | 102 | 2.6 | 8.7 | 0.00 | 0.09 | 0.00 | 51 | 1005.8 |
| 20260505071536 | 42 | 127 | 3.5 | 8.7 | 0.00 | 0.09 | 0.00 | 53 | 1005.7 |
| 20260505070636 | 42 | 115 | 2.6 | 11.3 | 0.00 | 0.09 | 0.00 | 56 | 1005.5 |
| 20260505065736 | 42 | 116 | 3.5 | 10.4 | 0.00 | 0.09 | 0.00 | 56 | 1005.5 |
| 20260505064835 | 41 | 117 | 3.5 | 10.4 | 0.00 | 0.09 | 0.00 | 58 | 1005.6 |
| 20260505064145 | 41 | 113 | 3.5 | 9.6 | 0.00 | 0.09 | 0.00 | 59 | 1005.5 |
| 20260505063036 | 41 | 113 | 2.6 | 7.8 | 0.00 | 0.09 | 0.00 | 60 | 1005.5 |
| 20260505062136 | 40 | 137 | 3.5 | 8.7 | 0.00 | 0.09 | 0.00 | 61 | 1005.4 |
| 20260505061235 | 40 | 108 | 2.6 | 7.8 | 0.00 | 0.09 | 0.00 | 65 | 1005.4 |
| 20260505060336 | 39 | 97 | 1.7 | 8.7 | 0.00 | 0.09 | 0.00 | 68 | 1005.3 |
| 20260505055436 | 40 | 99 | 0.9 | 4.3 | 0.00 | 0.09 | 0.00 | 69 | 1005.2 |
| 20260505054536 | 39 | 65 | 0.9 | 3.5 | 0.00 | 0.09 | 0.00 | 71 | 1005.2 |
| 20260505053636 | 38 | 88 | 1.7 | 6.1 | 0.00 | 0.09 | 0.00 | 72 | 1005.0 |
| 20260505052735 | 38 | 71 | 0.9 | 5.2 | 0.00 | 0.09 | 0.00 | 73 | 1005.0 |
| 20260505051836 | 38 | 74 | 1.7 | 4.3 | 0.00 | 0.09 | 0.00 | 74 | 1004.9 |
| 20260505050935 | 37 | 90 | 0.9 | 3.5 | 0.00 | 0.09 | 0.00 | 75 | 1004.7 |
| 20260505041536 | 35 | 109 | 0.9 | 4.3 | 0.00 | 0.09 | 0.00 | 81 | 1004.4 |
| 20260505040845 | 34 | 106 | 0.9 | 4.3 | 0.00 | 0.09 | 0.00 | 81 | 1004.4 |
| 20260505035735 | 34 | 101 | 0.9 | 6.1 | 0.00 | 0.09 | 0.00 | 83 | 1004.3 |
| 20260505034836 | 33 | 101 | 0.9 | 6.1 | 0.00 | 0.09 | 0.00 | 84 | 1004.0 |
| 20260505033936 | 33 | 110 | 0.9 | 5.2 | 0.00 | 0.09 | 0.00 | 85 | 1004.1 |
| 20260505033036 | 32 | 93 | 0.9 | 6.1 | 0.00 | 0.09 | 0.00 | 87 | 1004.0 |
| 20260505032136 | 31 | 96 | 0.0 | 3.5 | 0.00 | 0.09 | 0.00 | 90 | 1004.0 |
| 20260505031235 | 31 | 66 | 0.0 | 1.7 | 0.00 | 0.09 | 0.00 | 91 | 1004.1 |
| 20260505030335 | 30 | 59 | 0.0 | 0.9 | 0.00 | 0.09 | 0.00 | 91 | 1004.0 |
| 20260505025436 | 30 | 86 | 0.0 | 1.7 | 0.00 | 0.09 | 0.00 | 91 | 1004.0 |
| 20260505024536 | 30 | 91 | 0.0 | 0.9 | 0.00 | 0.09 | 0.00 | 91 | 1004.0 |
| 20260505023636 | 30 | 0 | 0.0 | 0.0 | 0.00 | 0.09 | 0.00 | 90 | 1003.9 |
| 20260505022736 | 30 | 0 | 0.0 | 0.0 | 0.00 | 0.09 | 0.00 | 90 | 1003.9 |
| 20260505021836 | 30 | 0 | 0.0 | 0.0 | 0.00 | 0.09 | 0.00 | 90 | 1003.7 |
| 20260505020936 | 31 | 103 | 0.0 | 0.9 | 0.00 | 0.09 | 0.00 | 90 | 1003.7 |
| 20260505020035 | 31 | 103 | 0.0 | 0.9 | 0.00 | 0.09 | 0.00 | 90 | 1003.7 |
| 20260505015135 | 32 | 105 | 0.0 | 1.7 | 0.00 | 0.09 | 0.00 | 90 | 1003.5 |
| 20260505014236 | 32 | 110 | 0.0 | 1.7 | 0.00 | 0.09 | 0.00 | 90 | 1003.5 |